Milwaukee, WI

12:51 AM CST on January 19, 2018 (GMT -0600)
Gen Mitchell International

Weather History for KMKE - November, 2011

Change the Weather History Date:

Tuesday, November 1, 2011

  Actual Average Record
Temperature  
Mean Temperature 48 °F 46 °F  
Max Temperature 62 °F 53 °F 77 °F (1950)
Min Temperature 34 °F 38 °F 4 °F (1883)
Degree Days  
Heating Degree Days 17 19  
Month to date heating degree days 17 19  
Since 1 July heating degree days 529 604  
Cooling Degree Days 0 0  
Month to date cooling degree days 0 0  
Year to date cooling degree days 793 641  
Moisture  
Dew Point 39 °F    
Average Humidity 66    
Maximum Humidity 85    
Minimum Humidity 47    
Precipitation  
Precipitation 0.00 in 0.10 in 1.82 in (1985)
Month to date precipitation 0.00 0.10  
Year to date precipitation 27.83 30.11  
Snow  
Snow 0.00 in 0.00 in 1.90 in (1954)
Month to date snowfall 0.0 0.0  
Since 1 July snowfall 0.0 0.3  
Since 1 September snowfall 0.0 0.3  
Snow Depth 0.00 in    
Sea Level Pressure  
Sea Level Pressure 30.07 in    
Wind  
Wind Speed 9 mph (South)    
Max Wind Speed 18 mph    
Max Gust Speed 24 mph    
Visibility 9 miles    
Events      
T = Trace of Precipitation, MM = Missing Value Source: NWS Daily Summary

Daily Weather History Graph

Daily Weather History Graph

Search for Another Location

Airport or City:

Trip Planner

Search our weather history database for the weather conditions in past years. The results will help you decide how hot, cold, wet, or windy it might be!

Date:

Astronomy

Nov. 01, 2011 Rise Set
Actual Time 7:25 AM CDT 5:44 PM CDT
Civil Twilight 6:56 AM CDT 6:13 PM CDT
Nautical Twilight 6:22 AM CDT 6:46 PM CDT
Astronomical Twilight 5:49 AM CDT 7:19 PM CDT
Moon 1:13 PM CDT (11/1) 11:25 PM CDT (11/1)
Length of Visible Light 11h 17m
Length of Day
10h 18m
Waxing Crescent, 40% of the Moon is Illuminated
Nov 1
Waxing Crescent
Nov 2
First Quarter
Nov 10
Full
Nov 18
Last Quarter
Nov 25
New

Hourly Weather History & Observations

Time (CDT) Temp. Windchill Dew Point Humidity Pressure Visibility Wind Dir Wind Speed Gust Speed Precip Events Conditions
12:52 AM 39.9 °F 36.7 °F 35.1 °F 83% 30.14 in 8.0 mi SSW 4.6 mph - N/A   Clear
1:52 AM 39.0 °F 36.8 °F 35.1 °F 86% 30.14 in 8.0 mi SSW 3.5 mph - N/A   Clear
2:52 AM 37.9 °F 33.5 °F 34.0 °F 86% 30.14 in 7.0 mi South 5.8 mph - N/A   Clear
3:52 AM 37.9 °F 34.4 °F 34.0 °F 86% 30.15 in 7.0 mi South 4.6 mph - N/A   Clear
4:52 AM 37.0 °F 32.4 °F 33.1 °F 86% 30.14 in 7.0 mi SSW 5.8 mph - N/A   Clear
5:52 AM 37.9 °F 32.7 °F 33.1 °F 83% 30.14 in 7.0 mi SSW 6.9 mph - N/A   Scattered Clouds
6:52 AM 39.0 °F 34.0 °F 34.0 °F 82% 30.14 in 8.0 mi SSW 6.9 mph - N/A   Mostly Cloudy
7:52 AM 39.0 °F 33.4 °F 34.0 °F 82% 30.14 in 7.0 mi SSW 8.1 mph - N/A   Scattered Clouds
8:52 AM 42.1 °F 37.1 °F 35.1 °F 76% 30.14 in 8.0 mi South 8.1 mph - N/A   Scattered Clouds
9:52 AM 46.9 °F - 36.0 °F 66% 30.13 in 10.0 mi South 11.5 mph 19.6 mph N/A   Partly Cloudy
10:52 AM 52.0 °F - 37.0 °F 57% 30.12 in 10.0 mi South 12.7 mph - N/A   Partly Cloudy
11:52 AM 55.9 °F - 36.0 °F 47% 30.10 in 10.0 mi South 15.0 mph - N/A   Partly Cloudy
12:52 PM 57.9 °F - 37.0 °F 46% 30.06 in 10.0 mi South 12.7 mph - N/A   Partly Cloudy
1:52 PM 59.0 °F - 41.0 °F 51% 30.02 in 10.0 mi SE 10.4 mph - N/A   Partly Cloudy
2:52 PM 60.1 °F - 41.0 °F 49% 30.00 in 10.0 mi South 11.5 mph - N/A   Partly Cloudy
3:52 PM 59.0 °F - 43.0 °F 55% 30.00 in 10.0 mi SSE 9.2 mph - N/A   Scattered Clouds
4:52 PM 59.0 °F - 45.0 °F 60% 29.99 in 10.0 mi South 10.4 mph - N/A   Scattered Clouds
5:52 PM 55.9 °F - 44.1 °F 64% 29.99 in 10.0 mi South 6.9 mph - N/A   Partly Cloudy
6:52 PM 55.0 °F - 45.0 °F 69% 30.01 in 10.0 mi South 8.1 mph - N/A   Clear
7:52 PM 54.0 °F - 44.1 °F 69% 30.01 in 10.0 mi South 5.8 mph - N/A   Clear
8:52 PM 55.9 °F - 44.1 °F 64% 30.01 in 10.0 mi South 11.5 mph - N/A   Clear
9:52 PM 55.0 °F - 44.1 °F 67% 30.01 in 10.0 mi SSW 9.2 mph - N/A   Clear
10:52 PM 57.0 °F - 43.0 °F 59% 30.01 in 10.0 mi SSW 13.8 mph - N/A   Clear
11:52 PM 57.0 °F - 39.9 °F 53% 30.01 in 10.0 mi SSW 13.8 mph - N/A   Clear